Weather History for KSLC - February, 2013

Change the Weather History Date:

Sunday, February 17, 2013

  Actual Average Record
Temperature  
Mean Temperature 29 °F 35 °F  
Max Temperature 36 °F 44 °F 63 °F (1930)
Min Temperature 22 °F 26 °F -5 °F (1933)
Degree Days  
Heating Degree Days 36 30  
Month to date heating degree days 628 553  
Since 1 July heating degree days 3848 3947  
Cooling Degree Days 0 0  
Month to date cooling degree days 0 0  
Year to date cooling degree days 0 0  
Moisture  
Dew Point 24 °F    
Average Humidity 82    
Maximum Humidity 100    
Minimum Humidity 63    
Precipitation  
Precipitation T in 0.04 in 0.86 in (1901)
Month to date precipitation 0.22 0.72  
Year to date precipitation 1.74 1.97  
Snow  
Snow T in 0.30 in 3.10 in (1955)
Month to date snowfall 4.3 6.7  
Since 1 July snowfall 56.7 41.4  
Snow Depth 3.00 in    
Sea Level Pressure  
Sea Level Pressure 29.99 in    
Wind  
Wind Speed 4 mph (NW)    
Max Wind Speed 13 mph    
Max Gust Speed 16 mph    
Visibility 4 miles    
Events Fog    
T = Trace of Precipitation, MM = Missing Value Source: NWS Daily Summary

Daily Weather History Graph

Daily Weather History Graph

Search for Another Location

Airport or City:

Trip Planner

Search our weather history database for the weather conditions in past years. The results will help you decide how hot, cold, wet, or windy it might be!

Date:

Astronomy

Feb. 17, 2013 Rise Set
Actual Time 7:18 AM MST 6:05 PM MST
Civil Twilight 6:50 AM MST 6:33 PM MST
Nautical Twilight 6:18 AM MST 7:05 PM MST
Astronomical Twilight 5:47 AM MST 7:37 PM MST
Moon 11:11 AM MST (2/17) 1:07 AM MST (2/17)
Length of Visible Light 11h 42m
Length of Day
10h 46m
Waxing Crescent, 49% of the Moon is Illuminated
Feb 17
Waxing Crescent
Feb 17
First Quarter
Feb 25
Full
Mar 4
Last Quarter
Mar 11
New

Hourly Weather History & Observations

Time (MST) Temp. Windchill Dew Point Humidity Pressure Visibility Wind Dir Wind Speed Gust Speed Precip Events Conditions
12:53 AM 28.0 °F 22.8 °F 24.1 °F 85% 30.02 in 4.0 mi SSE 4.6 mph - N/A   Overcast
1:41 AM 25.0 °F 18.1 °F 21.9 °F 88% 29.98 in 2.5 mi NNE 5.8 mph - N/A   Mostly Cloudy
1:50 AM 24.8 °F 19.1 °F 21.2 °F 86% 29.97 in 3.0 mi NNE 4.6 mph - N/A   Mostly Cloudy
1:53 AM 26.1 °F - 23.0 °F 88% 30.01 in 3.0 mi Calm Calm - N/A   Mostly Cloudy
2:26 AM 23.0 °F 13.9 °F 21.0 °F 92% 29.96 in 2.5 mi North 8.1 mph - N/A   Overcast
2:30 AM 23.0 °F 15.8 °F 19.9 °F 88% 29.96 in 0.8 mi NNW 5.8 mph - N/A   Overcast
2:33 AM 21.9 °F 15.7 °F 21.0 °F 96% 29.96 in 0.2 mi NNW 4.6 mph - N/A Fog Light Freezing Fog
2:53 AM 23.0 °F 14.7 °F 21.9 °F 96% 30.00 in 0.2 mi NW 6.9 mph - N/A Fog Light Freezing Fog
3:18 AM 25.0 °F 19.3 °F 25.0 °F 100% 29.94 in 0.2 mi WNW 4.6 mph - N/A Fog Light Freezing Fog
3:53 AM 26.1 °F 21.9 °F 26.1 °F 100% 29.96 in 0.2 mi SW 3.5 mph - N/A Fog Light Freezing Fog
4:09 AM 27.0 °F 21.6 °F 26.1 °F 96% 29.92 in 0.2 mi North 4.6 mph - N/A Fog Light Freezing Fog
4:53 AM 24.1 °F - 24.1 °F 100% 29.93 in 0.5 mi Calm Calm - N/A Fog Light Freezing Fog
5:27 AM 25.0 °F 19.3 °F 24.1 °F 96% 29.90 in 0.5 mi NNE 4.6 mph - N/A   Overcast
5:34 AM 25.0 °F 15.5 °F 24.1 °F 96% 29.90 in 0.5 mi North 9.2 mph - N/A   Overcast
5:43 AM 24.1 °F 17.0 °F 23.0 °F 96% 29.90 in 0.2 mi North 5.8 mph - 0.00 in Fog Light Freezing Drizzle
5:53 AM 24.1 °F 15.2 °F 23.0 °F 96% 29.97 in 0.2 mi NW 8.1 mph - 0.00 in Fog Light Freezing Fog
6:04 AM 25.0 °F 15.5 °F 24.1 °F 96% 29.93 in 0.5 mi NW 9.2 mph - N/A   Overcast
6:23 AM 25.0 °F 15.5 °F 24.1 °F 96% 29.94 in 0.2 mi NNW 9.2 mph - N/A Fog Light Freezing Fog
6:53 AM 26.1 °F 16.8 °F 25.0 °F 96% 29.98 in 0.2 mi NW 9.2 mph - N/A Fog Light Freezing Fog
7:53 AM 26.1 °F - 25.0 °F 96% 30.00 in 0.2 mi Calm Calm - N/A Fog Light Freezing Fog
8:31 AM 27.0 °F 21.6 °F 25.0 °F 92% 29.95 in 0.5 mi ESE 4.6 mph - N/A   Overcast
8:53 AM 27.0 °F 20.5 °F 25.0 °F 92% 30.00 in 0.5 mi SE 5.8 mph - N/A   Overcast
9:25 AM 28.0 °F 24.2 °F 26.1 °F 92% 29.94 in 1.0 mi SE 3.5 mph - N/A   Overcast
9:53 AM 28.0 °F - 28.0 °F 100% 30.00 in 1.0 mi Calm Calm - N/A   Overcast
10:53 AM 28.9 °F - 28.0 °F 96% 30.01 in 1.0 mi Calm Calm - N/A   Overcast
11:00 AM 30.0 °F 25.2 °F 28.0 °F 92% 29.95 in 2.0 mi WNW 4.6 mph - N/A   Overcast
11:40 AM 30.0 °F 26.5 °F 28.0 °F 92% 29.96 in 3.0 mi West 3.5 mph - N/A   Mostly Cloudy
11:53 AM 30.0 °F 26.5 °F 27.0 °F 88% 30.01 in 3.0 mi NW 3.5 mph - N/A   Overcast
12:40 PM 30.9 °F 27.5 °F 28.0 °F 89% 29.95 in 2.5 mi North 3.5 mph - N/A   Mostly Cloudy
12:53 PM 32.0 °F 27.5 °F 28.0 °F 85% 29.99 in 3.0 mi North 4.6 mph - N/A   Mostly Cloudy
1:53 PM 33.1 °F 25.5 °F 28.0 °F 82% 29.99 in 5.0 mi West 9.2 mph - N/A   Haze
2:53 PM 34.0 °F 25.5 °F 28.0 °F 79% 30.00 in 6.0 mi WNW 11.5 mph - N/A   Haze
3:53 PM 35.1 °F 29.3 °F 27.0 °F 72% 30.01 in 9.0 mi WNW 6.9 mph - N/A   Scattered Clouds
4:53 PM 35.1 °F 30.1 °F 25.0 °F 67% 30.03 in 10.0 mi NNW 5.8 mph - N/A   Mostly Cloudy
5:53 PM 34.0 °F 28.0 °F 21.9 °F 61% 30.06 in 10.0 mi WNW 6.9 mph - N/A   Scattered Clouds
6:53 PM 30.9 °F - 21.9 °F 69% 30.07 in 10.0 mi Calm Calm - N/A   Partly Cloudy
7:53 PM 30.9 °F - 21.9 °F 69% 30.09 in 10.0 mi Calm Calm - N/A   Scattered Clouds
8:53 PM 28.9 °F - 21.0 °F 72% 30.10 in 10.0 mi Calm Calm - N/A   Partly Cloudy
10:53 PM 26.1 °F - 21.0 °F 81% 30.13 in 10.0 mi Calm Calm - N/A   Partly Cloudy
11:53 PM 24.1 °F 19.7 °F 19.0 °F 81% 30.15 in 10.0 mi SW 3.5 mph - N/A   Partly Cloudy